Tracking 22124 objects as of 23-Jan-2021
HD Live streaming from Space Station
objects crossing your sky now

METEOR 1-14

Track METEOR 1-14 now!
10-day predictions
METEOR 1-14 is classified as:


NORAD ID: 6392
Int'l Code: 1973-015A
Perigee: 851.6 km
Apogee: 897.8 km
Inclination: 81.2 °
Period: 102.3 minutes
Semi major axis: 7245 km
RCS: 4.8967 m2 (large)
Launch date: March 20, 1973
Source: Commonwealth of Independent States (former USSR) (CIS)
Launch site: PLESETSK MISSILE AND SPACE COMPLEX (PKMTR)
aabbcc
Your satellite tracking list
Your tracking list is empty




NASA's NSSDC Master Catalog

Two Line Element Set (TLE):
1 06392U 73015A   21022.76531131 -.00000057  00000-0 -41099-4 0  9991
2 06392  81.2407  41.6539 0031874   0.2888 359.8294 14.07611774455317
Source of the keplerian elements: AFSPC